This is the latest recevied weather packets stored in our database for station/object KE0TNI-13. If no packets are shown the sender has not sent any weather packets the latest 10 day(s).
| Time | Temp. | Humidity | Pressure | Rain* | Wind** | Luminosity | Snow |
|---|---|---|---|---|---|---|---|
| 1777783800 | 2.22° C | 45% | 1024 hPa | 0 mm | - | 0 W/m² | - |
| 1777783497 | 2.78° C | 48% | 1023.9 hPa | 0 mm | - | 0 W/m² | - |
| 1777783194 | 2.78° C | 50% | 1023.5 hPa | 0 mm | - | 0 W/m² | - |
| 1777782890 | 2.22° C | 45% | 1023.7 hPa | 0 mm | - | 0 W/m² | - |
| 1777782587 | 2.22° C | 46% | 1023.5 hPa | 0 mm | - | 0 W/m² | - |
| 1777782284 | 2.22° C | 46% | 1023.6 hPa | 0 mm | - | 0 W/m² | - |
| 1777781981 | 2.22° C | 47% | 1023.5 hPa | 0 mm | - | 0 W/m² | - |
| 1777781677 | 2.22° C | 47% | 1023.5 hPa | 0 mm | - | 0 W/m² | - |
| 1777781375 | 2.22° C | 47% | 1023.5 hPa | 0 mm | - | 0 W/m² | - |
| 1777781072 | 2.22° C | 48% | 1023.5 hPa | 0 mm | - | 0 W/m² | - |
| 1777780769 | 2.22° C | 48% | 1023.6 hPa | 0 mm | - | 0 W/m² | - |
| 1777780466 | 2.22° C | 47% | 1023.7 hPa | 0 mm | - | 0 W/m² | - |
| 1777780164 | 2.22° C | 48% | 1023.5 hPa | 0 mm | - | 0 W/m² | - |
| 1777779861 | 2.22° C | 47% | 1023.5 hPa | 0 mm | - | 0 W/m² | - |
| 1777779557 | 2.78° C | 46% | 1023.5 hPa | 0 mm | - | 0 W/m² | - |
| 1777779255 | 2.78° C | 48% | 1023.7 hPa | 0 mm | - | 0 W/m² | - |
| 1777778953 | 2.78° C | 48% | 1023.5 hPa | 0 mm | - | 0 W/m² | - |
| 1777778652 | 2.78° C | 45% | 1023.5 hPa | 0 mm | - | 0 W/m² | - |
| 1777778349 | 2.78° C | 49% | 1023.3 hPa | 0 mm | - | 0 W/m² | - |
| 1777778046 | 2.78° C | 48% | 1023.6 hPa | 0 mm | - | 0 W/m² | - |
| 1777777743 | 2.78° C | 45% | 1023.3 hPa | 0 mm | - | 0 W/m² | - |
| 1777777439 | 2.78° C | 46% | 1023.5 hPa | 0 mm | - | 0 W/m² | - |
| 1777777135 | 3.33° C | 45% | 1023.2 hPa | 0 mm | - | 0 W/m² | - |
| 1777776833 | 3.33° C | 46% | 1023.3 hPa | 0 mm | - | 0 W/m² | - |
| 1777776530 | 3.33° C | 49% | 1023.3 hPa | 0 mm | - | 0 W/m² | - |
* Rain latest hour (hover to see other rain measurements)
** Current wind speed in m/s (hover to see current wind gust speed)